sat.trackr.live / text

‹ back to catalog

STARLINK-6028

NORAD 56818 · 2023-078BD

PAYLOAD ACTIVE UNKNOWN

§ Identity

Operator
Country
US
Launch date
2023-05-31
Launch site
AFWTR
Launch vehicle
Mass (kg)
RCS (m²)

Purposes: comms

External: N2YO · Heavens-Above · Gunter

§ Orbital elements

Epoch: 2026-09-20T05:19:20.273952Z

Period
96.10 min
Inclination
70.0006°
Eccentricity
0.0003735
Mean motion
14.98375220 rev/d
Perigee alt
569.3 km
Apogee alt
574.5 km
Semi-major
6,950.1 km
B*
8.6042e-4
RAAN
213.7913°
Arg perigee
271.8286°
Mean anomaly
88.2445°
Rev number
18,251

§ Raw data

STARLINK-60281 56818U 23078BD  26263.22176243  .00010201  00000+0  86042-3 0  99902 56818  70.0006 213.7913 0003735 271.8286  88.2445 14.98375220182510

JSON: /api/v1/satellites/56818 · /tle

For live sub-satellite position, see the globe view (requires WebGL).

§ Visibility from observer

Set your observer location to see the next 7 days of passes ≥ 10°. The values pass through the URL so the page stays shareable.

No JS? Fill the form by hand. The geolocation button needs JavaScript.